User: anonymous   Login
Location: Arena
(42.5007°N, 9.4650°E)
Time: 01:32:36
(UTC+00:00)
Language:

STARLINK-1217 - Orbit

View from above orbital plane
View from above orbital plane
View from above satellite
View from above satellite

Ground track
Ground track

The orbit data is extracted from the following two-line orbital elements,

1 45226U 20012BA  20192.91667824 -.00039008  00000-0 -26702-2 0  9992
2 45226  53.0004 289.2024 0001448  97.1789 218.7828 15.05615573 22781
Epoch (UTC): 10 July 2020 22:00:01
Eccentricity: 0.0001448
inclination: 53.0004°
perigee height: 548 km
apogee height: 550 km
right ascension of ascending node: 289.2024°
argument of perigee: 97.1789°
revolutions per day: 15.05615573
mean anomaly at epoch: 218.7828°
orbit number at epoch: 2278

The dashed part of the orbit path shows where the satellite is in the earth's shadow,  

DLR